Location: Ravensburg
(47.7866°N, 9.6124°E)
Time: 09:29:04
(UTC+02:00)

YUBILEINY - Pass Details

Date: 15 March 2026
Orbit: 1477 x 1509 km, 82.5° (Epoch: 17 April)

Event Time Altitude Azimuth Distance (km) Brightness Sun altitude
Rises 01:57:49 0° 352° (N) 4,625 ? -40.7°
Reaches altitude 10° 02:01:22 10° 5° (N) 3,637 ? -40.4°
Maximum altitude 02:08:35 28° 61° (ENE) 2,510 ? -39.7°
Drops below altitude 10° 02:15:43 10° 117° (ESE) 3,612 ? -39.1°
Sets 02:19:11 0° 129° (SE) 4,587 ? -38.7°
